"Pseudo-MPEC" for P10OT5k

Created 2019 Jun 15 19:08:51 UT using Find_Orb

Click here for an explanation of pseudo-MPECs

 
 Astrometry: 
     P10OT5k  C2019 05 30_2.DO%8j?Astrometry/:sVJ[P$Z:;7*X+\@wvGA,lP*u/wfN,G*F52
     P10OT5k  C2019 05 30\G/p;$aE]l(#jX$Jyd=)o88F$@,_BICXJROe161n)mKM%PwX::cSF52
     P10OT5k  C2019 06 02T/1OJq?n)i2T1#eY`2_375dpO%2m2@wIHt]p$LJj[6mI-3.@$C+NF51
     P10OT5k  C2019 06 02Md:tv5vM^oOY,y73J'n:Onc\[L#`obhv)pVG)Y5XL5\T)v)R:?gfF51
     P10OT5k  C2019 06 02B'5^pfdy\tq]$sy7cI5k,CO\[PFHBP,[FrEy.@plxCE5,!^BmD?vF51
     P10OT5k  C2019 06 09'FW1l%(h/4Iredacted;U`o.Hi$nAnV.onclick*9J8tpI+Og*^!F51
     P10OT5k  C2019 06 09Tnhere;#Vdl[2g]CEvkforPl*_Xp.27+pvaJDM@s5S`LY]r/OV3;F51
     P10OT5k  C2019 06 09lL#d8;o.kVY53`iSZY,t+@XexplanationW)a3_N5TtaX^SsTbd0F51
     P10OT5k KC2019 06 10uSC[vQoU7j;WL;=`kOU@kg$D`X`$C[1@qaqf=c02tf85]x6)(EIs291
     P10OT5k KC2019 06 102M=L`$*)9o#0VuQM^;9X\RH?*^H2]K+Iy#u_[YBtNE+^t6f2Q%E3291

Station data:
(291) LPL/Spacewatch II  (N31.961669 W111.599905)  US/Arizona.  Observers J.
   V. Scotti, R. S. McMillan. 1.8-m f/2.7 reflector + CCD.
(F51) Pan-STARRS 1, Haleakala  (N20.707235 W156.255910)  US/Hawaii.
   Observers N. Primak, A. Schultz, S. Watters, J. Thiel, T. Goggia. Measurer
   PS1 Science Consortium. 1.8-m Ritchey-Chrétien + CCD.
(F52) Pan-STARRS 2, Haleakala  (N20.707384 W156.255910)  US/Hawaii. 1.8-m
   Ritchey-Chrétien + CCD.

Orbital elements:  P10OT5k
   Perihelion 2018 May 30.385302 +/- 2.06 TT =  9:14:50 (JD 2458268.885302)
Epoch 2019 Jun 10.0 TT = JDT 2458644.5   Earth MOID: 0.7819   AutoNEOCP
M 142.90065519 +/- 0.8              (J2000 ecliptic)
n   0.38044479 +/- 0.000361         Peri.  257.44610 +/- 0.57
a   1.88628924 +/- 0.00119          Node   204.36362 +/- 0.09
e   0.1094351 +/- 0.00151           Incl.   20.86799 +/- 0.054
P   2.59/946.24d           H 20.4   G  0.15   U  7.5  
q 1.67986283 +/- 0.00189    Q 2.09271565 +/- 0.0041
From 10 observations 2019 May 30-June 10; mean residual 0".16
Residuals in arcseconds: 
190530 F52  .07-  .05+    190602 F51  .12-  .11+    190610 291  .14+  .03+    
190530 F52  .10+  .15-    190609 F51  .11+  .09-    190610 291  .37-  .32+    
190602 F51  .08-  .17+    190609 F51  .06+  .19-    
190602 F51  .13+  .06-    190609 F51  .14+  .22-    

Ephemerides (geocentric):
Date (UTC) HH   RA              Dec         delta   r     elong  mag " sig PA
---- -- -- --  -------------   -----------  ------ ------ -----  --- ---- ---
2019 06 15 19  16 10 21.653   +07 59 49.52  1.1610 2.0621 142.6 23.2 1.44   7
2019 06 15 20  16 10 19.453   +07 59 58.56  1.1612 2.0621 142.5 23.2 1.45   7
2019 06 15 21  16 10 17.255   +08 00 07.56  1.1615 2.0621 142.5 23.2 1.47   7
2019 06 15 22  16 10 15.060   +08 00 16.51  1.1617 2.0622 142.5 23.2 1.48   7
2019 06 15 23  16 10 12.868   +08 00 25.42  1.1619 2.0622 142.4 23.2 1.49   7
2019 06 16 00  16 10 10.678   +08 00 34.29  1.1621 2.0622 142.4 23.2 1.51   7
2019 06 16 01  16 10 08.491   +08 00 43.11  1.1624 2.0623 142.4 23.2 1.52   7
2019 06 16 02  16 10 06.306   +08 00 51.89  1.1626 2.0623 142.3 23.2 1.54   7
2019 06 16 03  16 10 04.124   +08 01 00.63  1.1628 2.0623 142.3 23.2 1.55   7
2019 06 16 04  16 10 01.945   +08 01 09.32  1.1631 2.0623 142.3 23.2 1.56   7
2019 06 16 05  16 09 59.768   +08 01 17.96  1.1633 2.0624 142.2 23.2 1.58   6
2019 06 16 06  16 09 57.594   +08 01 26.57  1.1635 2.0624 142.2 23.2 1.59   6
2019 06 16 07  16 09 55.422   +08 01 35.13  1.1637 2.0624 142.2 23.2 1.61   6
2019 06 16 08  16 09 53.253   +08 01 43.65  1.1640 2.0624 142.1 23.2 1.62   6
2019 06 16 09  16 09 51.086   +08 01 52.12  1.1642 2.0625 142.1 23.2 1.64   6
2019 06 16 10  16 09 48.922   +08 02 00.55  1.1644 2.0625 142.1 23.2 1.65   6
2019 06 16 11  16 09 46.761   +08 02 08.94  1.1647 2.0625 142.0 23.2 1.67   6
2019 06 16 12  16 09 44.602   +08 02 17.28  1.1649 2.0626 142.0 23.2 1.68   6
2019 06 16 13  16 09 42.446   +08 02 25.58  1.1651 2.0626 142.0 23.2 1.70   6
2019 06 16 14  16 09 40.293   +08 02 33.84  1.1654 2.0626 141.9 23.2 1.71   6
2019 06 16 15  16 09 38.142   +08 02 42.05  1.1656 2.0626 141.9 23.2 1.73   6
2019 06 16 16  16 09 35.994   +08 02 50.22  1.1658 2.0627 141.9 23.2 1.74   6
2019 06 16 17  16 09 33.848   +08 02 58.34  1.1661 2.0627 141.8 23.2 1.76   6
2019 06 16 18  16 09 31.705   +08 03 06.43  1.1663 2.0627 141.8 23.2 1.77   6
2019 06 16 19  16 09 29.565   +08 03 14.47  1.1665 2.0627 141.8 23.2 1.79   6
2019 06 16 20  16 09 27.427   +08 03 22.46  1.1668 2.0628 141.8 23.2 1.80   5
2019 06 16 21  16 09 25.292   +08 03 30.41  1.1670 2.0628 141.7 23.2 1.82   5
2019 06 16 22  16 09 23.160   +08 03 38.32  1.1672 2.0628 141.7 23.2 1.83   5
2019 06 16 23  16 09 21.030   +08 03 46.19  1.1675 2.0628 141.7 23.2 1.85   5
2019 06 17 00  16 09 18.903   +08 03 54.01  1.1677 2.0629 141.6 23.3 1.86   5
2019 06 17 01  16 09 16.779   +08 04 01.79  1.1679 2.0629 141.6 23.3 1.88   5
2019 06 17 02  16 09 14.657   +08 04 09.53  1.1682 2.0629 141.6 23.3 1.90   5
2019 06 17 03  16 09 12.538   +08 04 17.22  1.1684 2.0630 141.5 23.3 1.91   5
2019 06 17 04  16 09 10.422   +08 04 24.87  1.1686 2.0630 141.5 23.3 1.93   5
2019 06 17 05  16 09 08.308   +08 04 32.48  1.1689 2.0630 141.5 23.3 1.94   5
2019 06 17 06  16 09 06.197   +08 04 40.04  1.1691 2.0630 141.4 23.3 1.96   5
2019 06 17 07  16 09 04.089   +08 04 47.56  1.1694 2.0631 141.4 23.3 1.97   5
2019 06 17 08  16 09 01.983   +08 04 55.04  1.1696 2.0631 141.4 23.3 1.99   5
2019 06 17 09  16 08 59.880   +08 05 02.48  1.1698 2.0631 141.3 23.3 2.01   5
2019 06 17 10  16 08 57.780   +08 05 09.87  1.1701 2.0631 141.3 23.3 2.02   5
2019 06 17 11  16 08 55.682   +08 05 17.22  1.1703 2.0632 141.3 23.3 2.04   5
2019 06 17 12  16 08 53.587   +08 05 24.53  1.1706 2.0632 141.2 23.3 2.06   4
2019 06 17 13  16 08 51.495   +08 05 31.79  1.1708 2.0632 141.2 23.3 2.07   4
2019 06 17 14  16 08 49.406   +08 05 39.01  1.1710 2.0633 141.2 23.3 2.09   4
2019 06 17 15  16 08 47.319   +08 05 46.19  1.1713 2.0633 141.1 23.3 2.10   4
2019 06 17 16  16 08 45.235   +08 05 53.32  1.1715 2.0633 141.1 23.3 2.12   4
2019 06 17 17  16 08 43.153   +08 06 00.41  1.1717 2.0633 141.1 23.3 2.14   4
2019 06 17 18  16 08 41.075   +08 06 07.46  1.1720 2.0634 141.0 23.3 2.15   4